Other Surface Observations
Issued by NWS Upton, NY

Home | Current Version | Previous Version | Text Only | Print | Product List | Glossary On
Versions: 1 2 3 4 5 6 7 8 9 10 11 12 13 14 15 16 17 18 19 20 21 22 23 24 25 26 27 28 29 30 31 32 33 34 35 36 37 38 39 40 41 42 43 44 45 46 47 48 49 50
000
SXUS51 KOKX 191557
OSOOKX
New York City Metropolitan Area Weather Roundup
National Weather Service New York NY
1200 PM EDT SUN MAY 19 2019

CITY           SKY/WX    TMP DP  RH WIND       PRES   REMARKS
Central Park   FAIR      73  58  59 VRB6      30.07F
LaGuardia Arpt PTSUNNY   70  57  63 S16G26    30.05F
Kennedy Intl   PTSUNNY   66  60  81 S14       30.08S
Newark Liberty FAIR      73  57  57 VRB7      30.04F
Teterboro Arpt FAIR      76  58  53 SE16G26   30.03F
Bronx Lehman C   N/A     72  57  60 S13         N/A
Queens College   N/A     68  57  68 S17         N/A
Breezy Point     N/A     61 N/A N/A SE9         N/A
Brooklyn Coll    N/A     66  57  72 SE15        N/A
Staten Island    N/A     72  59  64 SE6         N/A

>>>>>>>>>>>>>>>>>>>>>>>>>>>>>>>>> KEY <<<<<<<<<<<<<<<<<<<<<<<<<<<<<<<
> SKY/WX - Sky Condition/Present    : R : WCI - Wind Chill Index    <
>          Weather                  : E : VSB - Visibility in Miles <
> TMP    - Temperature in Deg F     : M : HX  - Heat Index          <
> DP     - Dew Point Temperature    : A : TC  - Temperature in      <
> RH     - Relative Humidity        : R :       Celsius             <
> WIND   - Direction/Speed (mph)    : K : VRB - Variable Wind Dir   <
> PRES   - Pressure (in Hg)         : S :                           <
>>>>>>>>>>>>>>>>>>>>>>>>>>>>>>>>> KEY <<<<<<<<<<<<<<<<<<<<<<<<<<<<<<<



USA.gov is the U.S. government's official web portal to all federal, state and local government web resources and services.